This is the latest recevied weather packets stored in our database for station/object W4OA. If no packets are shown the sender has not sent any weather packets the latest 1 day(s).
| Time | Temp. | Humidity | Pressure | Rain* | Wind** | Luminosity | Snow |
|---|---|---|---|---|---|---|---|
| 1778014799 | 26.11° C | 46% | 1007 hPa | 0 mm | 2.24 m/s, 68° | 0 W/m² | - |
| 1778014501 | 26.67° C | 48% | 1007 hPa | 0 mm | 0 m/s | 0 W/m² | - |
| 1778014198 | 26.11° C | 46% | 1007 hPa | 0 mm | 2.24 m/s, 68° | 0 W/m² | - |
| 1778013899 | 27.22° C | 44% | 1007 hPa | 0 mm | 0.89 m/s, 45° | 0 W/m² | - |
| 1778013599 | 26.67° C | 46% | 1007 hPa | 0 mm | 0.89 m/s, 135° | 0 W/m² | - |
| 1778013299 | 26.67° C | 43% | 1007 hPa | 0 mm | 1.79 m/s, 68° | 0 W/m² | - |
| 1778013000 | 26.67° C | 44% | 1008 hPa | 0 mm | 0.45 m/s, 45° | 0 W/m² | - |
| 1778012698 | 27.22° C | 44% | 1007 hPa | 0 mm | 0 m/s | 0 W/m² | - |
| 1778012399 | 26.11° C | 44% | 1007 hPa | 0 mm | 2.24 m/s, 135° | 0 W/m² | - |
| 1778012098 | 26.67° C | 45% | 1007 hPa | 0 mm | 0.45 m/s, 0° | 0 W/m² | - |
| 1778011799 | 26.67° C | 45% | 1007 hPa | 0 mm | 0.45 m/s, 158° | 0 W/m² | - |
| 1778011499 | 26.11° C | 45% | 1008 hPa | 0 mm | 1.34 m/s, 68° | 0 W/m² | - |
| 1778011201 | 26.11° C | 46% | 1008 hPa | 0 mm | 1.34 m/s, 90° | 0 W/m² | - |
| 1778010898 | 26.11° C | 46% | 1008 hPa | 0 mm | 1.79 m/s, 135° | 0 W/m² | - |
| 1778010599 | 26.11° C | 46% | 1008 hPa | 0 mm | 0.89 m/s, 45° | 0 W/m² | - |
| 1778010298 | 26.11° C | 46% | 1008 hPa | 0 mm | 2.68 m/s, 90° | 0 W/m² | - |
| 1778010001 | 26.11° C | 46% | 1008 hPa | 0 mm | 0 m/s | 0 W/m² | - |
| 1778009699 | 26.11° C | 47% | 1008 hPa | 0 mm | 0.89 m/s, 68° | 0 W/m² | - |
| 1778009398 | 26.11° C | 47% | 1008 hPa | 0 mm | 1.34 m/s, 68° | 0 W/m² | - |
| 1778009099 | 26.11° C | 47% | 1008 hPa | 0 mm | 1.34 m/s, 113° | 0 W/m² | - |
| 1778008798 | 25.56° C | 47% | 1008 hPa | 0 mm | 0.89 m/s, 90° | 0 W/m² | - |
| 1778008499 | 25.56° C | 49% | 1008 hPa | 0 mm | 0.89 m/s, 0° | 0 W/m² | - |
| 1778008198 | 24.44° C | 51% | 1008 hPa | 0 mm | 0.89 m/s, 113° | 0 W/m² | - |
| 1778007899 | 24.44° C | 51% | 1008 hPa | 0 mm | 0.89 m/s, 113° | 0 W/m² | - |
| 1778007599 | 24.44° C | 50% | 1008 hPa | 0 mm | 1.34 m/s, 68° | 0 W/m² | - |
* Rain latest hour (hover to see other rain measurements)
** Current wind speed in m/s (hover to see current wind gust speed)